Regional Weather Roundup
Issued by NWS

Home | Current Version | Previous Version | Text Only | Print | Product List | Glossary On
Versions: 1 2 3 4 5 6 7 8 9 10 11 12 13 14 15 16 17 18 19 20 21 22 23 24 25 26 27 28 29 30 31 32 33 34 35 36 37 38 39 40 41 42 43 44 45 46 47 48 49 50
000
ASUS43 KDTX 290010
RWRMI
MICHIGAN HOURLY REGIONAL WEATHER ROUNDUP
NATIONAL WEATHER SERVICE DETROIT/PONTIAC MI
800 PM EDT THU JUL 28 2016

NOTE: "FAIR" INDICATES FEW OR NO CLOUDS BELOW 12,000 FEET WITH NO
SIGNIFICANT WEATHER AND/OR OBSTRUCTION TO VISIBILITY.

MIZ047>049-052>055-059>063-066>070-074>076-081>083-290100-
SOUTHEAST LOWER MICHIGAN

CITY           SKY/WX    TMP DP  RH WIND       PRES   REMARKS
ADRIAN         MOCLDY    80  67  64 S5        29.90R
6HR MIN TEMP:  81; 6HR MAX TEMP:  86; 6HR PCP: TRACE;

ALMA           MOSUNNY   76  64  67 CALM      29.95R
ANN ARBOR      PTCLDY    81  64  56 N6        29.90R
BAD AXE        CLOUDY    72  62  71 N6        29.97R
CARO           CLOUDY    75  63  67 N7        29.95R
DETROIT CITY   PTCLDY    79  65  62 NE12      29.91R
6HR MIN TEMP:  79; 6HR MAX TEMP:  85;

DETROIT        MOCLDY    84  59  42 NE10      29.90R
6HR MIN TEMP:  84; 6HR MAX TEMP:  87;

FLINT          CLOUDY    83  63  50 N8        29.93R
6HR MIN TEMP:  83; 6HR MAX TEMP:  90;

GROSSE ILE     PTCLDY    81  65  59 E9        29.89R
6HR MIN TEMP:  81; 6HR MAX TEMP:  86;

HILLSDALE      CLOUDY    79  65  62 N5        29.92R
6HR MIN TEMP:  59; 6HR MAX TEMP:  87;

HOWELL         CLOUDY    80  61  52 NW7       29.93R
6HR MIN TEMP:  80; 6HR MAX TEMP:  85;


CITY           SKY/WX    TMP DP  RH WIND       PRES   REMARKS
JACKSON        PTCLDY    80  66  62 N5        29.92R
6HR MIN TEMP:  80; 6HR MAX TEMP:  85;

LAMBERTVILLE   MOCLDY    81  70  69 CALM      29.90S
6HR MIN TEMP:  81; 6HR MAX TEMP:  85;

LANSING        LGT RAIN  75  68  78 E9        29.94R
6HR MIN TEMP:  73; 6HR MAX TEMP:  86; 6HR PCP:  0.04;

LAPEER         FAIR      78  59  51 NE8       29.95R
6HR MIN TEMP:  78; 6HR MAX TEMP:  83;

MASON          MOCLDY    77  65  65 N9        29.93R
MONROE         CLOUDY    80  71  74 SE6       29.89R
6HR MIN TEMP:  80; 6HR MAX TEMP:  84;

PONTIAC        MOCLDY    80  60  50 NE8       29.92R
6HR MIN TEMP:  80; 6HR MAX TEMP:  85;

PORT HOPE        N/A     72  65  78 N8        29.95S
6HR MIN TEMP:  72; 6HR MAX TEMP:  75;

PORT HURON     CLOUDY    73  63  68 VRB6      29.94R
TRI CITIES     CLOUDY    74  65  73 NE9       29.95S
6HR MIN TEMP:  74; 6HR MAX TEMP:  80;

MIDLAND        FAIR      73  64  72 NE7       29.95R
6HR MIN TEMP:  73; 6HR MAX TEMP:  80;

TROY           MOCLDY    84  54  35 NE9       29.93S
SAGINAW HB     CLOUDY    73  61  64 NE9       29.94S
$$
MIZ043>046-050>051-056>058-064>065-071>073-077>080-290100-
SOUTHWEST LOWER MICHIGAN

CITY           SKY/WX    TMP DP  RH WIND       PRES   REMARKS
BATTLE CREEK   CLOUDY    75  67  76 NW20      29.94R
6HR MIN TEMP:  75; 6HR MAX TEMP:  83;

BENTON HARBOR  CLOUDY    76  66  71 E12       29.89F
6HR MIN TEMP:  76; 6HR MAX TEMP:  87;

BIG RAPIDS     LGT RAIN  69  69 100 CALM      29.95F
6HR MIN TEMP:  69; 6HR MAX TEMP:  81; 6HR PCP:  0.03;

COLDWATER      CLOUDY    79  67  67 N5        29.91S
6HR MIN TEMP:  79; 6HR MAX TEMP:  83;

FREMONT        FAIR      67  67 100 CALM      29.93F
6HR MIN TEMP:  65; 6HR MAX TEMP:  83;

HOLLAND        CLOUDY    75  71  87 E7        29.92F
6HR MIN TEMP:  68; 6HR MAX TEMP:  87; 6HR PCP:  0.07;

GRAND RAPIDS   CLOUDY    71  66  84 NE8       29.94S
6HR MIN TEMP:  71; 6HR MAX TEMP:  85; 6HR PCP:  0.01;

IONIA          FAIR      77  63  61 NE8       29.92S
6HR MIN TEMP:  77; 6HR MAX TEMP:  82;

KALAMAZOO      CLOUDY    72  67  84 N15       29.93F
6HR MIN TEMP:  72; 6HR MAX TEMP:  88; 6HR PCP:  0.13;

LUDINGTON      CLOUDY    71  67  87 CALM      29.93F
6HR MIN TEMP:  71; 6HR MAX TEMP:  79;

MARSHALL       CLOUDY    79  67  66 CALM      29.91S
6HR MIN TEMP:  79; 6HR MAX TEMP:  85;

MOUNT PLEASANT CLOUDY    76  63  64 E5        29.95S
6HR MIN TEMP:  76; 6HR MAX TEMP:  83;

MUSKEGON       CLOUDY    72  66  81 E10       29.91F
6HR MIN TEMP:  72; 6HR MAX TEMP:  84; 6HR PCP:  0.47;

SOUTH HAVEN    CLOUDY    72  69  91 E6        29.89F
$$
MIZ016>042-290100-
NORTHERN LOWER MICHIGAN

CITY           SKY/WX    TMP DP  RH WIND       PRES   REMARKS
ALPENA         CLEAR     76  56  49 NE6       29.99R
6HR MIN TEMP:  76; 6HR MAX TEMP:  80;

BEAVER ISLAND  SUNNY     72  55  55 N9G16     30.02R
6HR MIN TEMP:  72; 6HR MAX TEMP:  78;

BELLAIRE       SUNNY     75  58  55 N6        29.97S
6HR MIN TEMP:  75; 6HR MAX TEMP:  81;

CADILLAC       CLOUDY    73  63  70 N7        29.98S
CHARLEVOIX     SUNNY     74  61  64 N9        30.02R
6HR MIN TEMP:  72; 6HR MAX TEMP:  76;

FRANKFORT      CLOUDY    72  60  65 NE6       29.97R
GAYLORD        SUNNY     75  54  47 NE9       30.01R
6HR MIN TEMP:  73; 6HR MAX TEMP:  80;

GRAYLING       CLOUDY    77  59  53 N8        29.99S
HARBOR SPRINGS SUNNY     76  56  50 NE7       29.99R
HOUGHTON LAKE  CLOUDY    72  62  71 N9        29.99R
6HR MIN TEMP:  72; 6HR MAX TEMP:  81; 6HR PCP: TRACE;

MANISTEE       CLOUDY    75  63  66 NE9       29.94S
OSCODA         CLOUDY    71  61  71 NE9       29.97R
6HR MIN TEMP:  71; 6HR MAX TEMP:  78;

PELLSTON       SUNNY     77  54  44 NE6       30.00R
6HR MIN TEMP:  77; 6HR MAX TEMP:  80;

ROGERS CITY    MOSUNNY   73  58  58 CALM      30.00S
TRAVERSE CITY  PTSUNNY   75  62  64 N6        29.95S
6HR MIN TEMP:  74; 6HR MAX TEMP:  79;

$$
MIZ007>008-015-290100-
EASTERN UPPER MICHIGAN

CITY           SKY/WX    TMP DP  RH WIND       PRES   REMARKS
KINROSS        CLOUDY    68  56  65 NW10      30.01R
6HR MIN TEMP:  68; 6HR MAX TEMP:  77;

MACKINAC ISLAN CLOUDY    73  56  56 N6        30.01R
6HR MIN TEMP:  73; 6HR MAX TEMP:  76;

NEWBERRY       CLOUDY    66  54  63 NW7       30.04R
S. S. MARIE    SUNNY     71  56  58 W7        30.00R
6HR MIN TEMP:  71; 6HR MAX TEMP:  80;

MUNISING         N/A     65  57  75 N12       30.06R
6HR MIN TEMP:  65; 6HR MAX TEMP:  72;

$$
MIZ004>006-011>014-085-290100-
CENTRAL UPPER MICHIGAN

CITY           SKY/WX    TMP DP  RH WIND       PRES   REMARKS
MANISTIQUE     SUNNY     68  54  60 N10       30.02R
ESCANABA       MOSUNNY   70  52  52 N8        30.02S
6HR MIN TEMP:  70; 6HR MAX TEMP:  77;

MENOMINEE        N/A    N/A N/A N/A NE9       30.01
SAWYER-GWINN   SUNNY     61  54  77 NE9       30.08R
$$
MIZ001>003-009>011-084-290100-
WESTERN UPPER MICHIGAN

CITY           SKY/WX    TMP DP  RH WIND       PRES   REMARKS
IRON MOUNTAIN  SUNNY     68  51  54 NE9       30.04R
6HR MIN TEMP:  68; 6HR MAX TEMP:  78;

HOUGHTON       CLOUDY    66  54  65 SE6       30.08R
6HR MIN TEMP:  66; 6HR MAX TEMP:  72;

COPPER HARBOR    N/A     67  54  63 N5        30.07F
6HR MIN TEMP:  64; 6HR MAX TEMP:  68;

IRONWOOD       CLOUDY    66  50  55 NE9       30.06S
6HR MIN TEMP:  66; 6HR MAX TEMP:  73;

$$

ABBREVIATIONS USED IN REMARKS
   TC - TEMPERATURE IN CELSIUS
  WCI - WIND CHILL INDEX
   HX - HEAT INDEX
  VSB - VISIBILITY




USA.gov is the U.S. government's official web portal to all federal, state and local government web resources and services.